Tracking 28790 objects as of 19-Apr-2024
HD Live streaming from Space Station
objects crossing your sky now

IRIDIUM 44

Track IRIDIUM 44 now!
10-day predictions
IRIDIUM 44 is classified as:


NORAD ID: 25078
Int'l Code: 1997-077B
Perigee: 766.1 km
Apogee: 769.7 km
Inclination: 86.4 °
Period: 100.0 minutes
Semi major axis: 7138 km
RCS: 3.743 m2 (large)
Launch date: December 8, 1997
Source: United States (US)
Launch site: Taiyaun Space Center, China (TSC)
Your satellite tracking list
Your tracking list is empty




NASA's NSSDC Master Catalog

Two Line Element Set (TLE):
1 25078U 97077B   24109.84517957  .00001456  00000-0  46278-3 0  9990
2 25078  86.3991  40.2999 0002581  41.1990 318.9403 14.39313865382647
Source of the keplerian elements: AFSPC